Tracking 22081 objects as of 4-Dec-2020
HD Live streaming from Space Station
objects crossing your sky now

TITAN 34D R/B(2)

Track TITAN 34D R/B(2) now!


NORAD ID: 19983
Int'l Code: 1989-035C
Perigee: 31,788.8 km
Apogee: 40,275.4 km
Inclination: 8.0 °
Period: 1,448.3 minutes
Semi major axis: 42403 km
RCS: Unknown
Launch date: May 10, 1989
Source: United States (US)
Launch site: AIR FORCE EASTERN TEST RANGE (AFETR)

Note: This is a ROCKET BODY
aabbcc
Your satellite tracking list
Your tracking list is empty




NASA's NSSDC Master Catalog

Two Line Element Set (TLE):
1 19983U 89035C   20337.67874244  .00000086  00000-0  00000-0 0  9996
2 19983   8.0251   3.5608 1000699  20.0045 343.6793  0.99427438  5383
Source of the keplerian elements: McCants